Flag for U.S.A. Weather past 2 weeks in Philadelphia, Pennsylvania, U.S.A.

Now
66 °F

Mostly cloudy.


Feels Like: 66 °F
Forecast: 60 / 77 °F
Wind: 3 mph from Southeast

Location: Philadelphia International Airport

Current Time: Sep 30, 2014 at 2:14:12 AM

Latest Report: Sep 30, 2014 at 1:54 AM


Visibility: 10 mi

Pressure: 29.93 "Hg

Humidity: 87%

Dew point: 62 °F

Location of PhiladelphiaLocation

Historic Weather in Philadelphia — Graph

°F

Philadelphia temperature yesterday

Maximum temperature yesterday: 75 °F (at 12:54 PM)
Minimum temperature yesterday: 64 °F (at 3:54 AM)
Average temperature yesterday: 69 °F

Past Weeks' High & Low Weather Summary

 TemperatureHumidityPressure
High84 °F (Sep 27, 3:54 PM)93% (Sep 21, 5:54 AM)30.51 "Hg (Sep 21, 5:54 AM)
Low51 °F (Sep 23, 6:54 AM)35% (Sep 23, 3:54 PM)29.64 "Hg (Sep 21, 5:54 PM)
Average66 °F67%30.13 "Hg
* Reported Sep 15 12:54 AM — Sep 30 12:54 AM, Philadelphia, Weather by CustomWeather, © 2014

Note: Actual official high and low records may vary slightly from our data, if they occured in-between our weather recording intervals... More about our weather records

Advertising

Philadelphia weather history for previous 24 hours

 ConditionsComfort  
Time TempWeatherWind HumidityBarometerVisibility
12:54 AM
Sep 30
67 °FMostly cloudy.6 mph85%29.93 "Hg10 mi
11:54 PM
Sep 29
67 °FMostly cloudy.6 mph87%29.94 "Hg10 mi
10:54 PM67 °FMostly cloudy.3 mph87%29.95 "Hg10 mi
9:54 PM67 °FLight rain. Mostly cloudy.6 mph87%29.95 "Hg10 mi
8:54 PM68 °FMostly cloudy.6 mph87%29.95 "Hg10 mi
7:54 PM69 °FLight rain. Overcast.9 mph84%29.94 "Hg10 mi
6:54 PM70 °FLight rain. Cloudy.10 mph84%29.93 "Hg9 mi
5:54 PM71 °FLight rain. Cloudy.9 mph78%29.93 "Hg10 mi
4:54 PM72 °FCloudy.3 mph71%29.92 "Hg10 mi
3:54 PM73 °FCloudy.7 mph66%29.93 "Hg10 mi
2:54 PM74 °FCloudy.7 mph64%29.94 "Hg10 mi
1:54 PM75 °FCloudy.7 mph62%29.96 "Hg10 mi
12:54 PM75 °FBroken clouds.7 mph60%29.98 "Hg10 mi
11:54 AM73 °FPartly sunny.7 mph69%29.99 "Hg10 mi
10:54 AM70 °FBroken clouds.6 mph76%30.00 "Hg8 mi
9:54 AM69 °FCloudy.7 mph79%29.99 "Hg7 mi
8:54 AM67 °FBroken clouds.No wind85%29.99 "Hg6 mi
7:54 AM65 °FFog.5 mph87%30.01 "Hg6 mi
6:54 AM64 °FMostly cloudy.5 mph90%30.01 "Hg7 mi
5:54 AM64 °FMostly cloudy.5 mph87%30.01 "Hg10 mi
4:54 AM65 °FPassing clouds.6 mph87%30.01 "Hg10 mi
3:54 AM64 °FMostly cloudy.6 mph90%30.01 "Hg10 mi
2:54 AM65 °FPassing clouds.3 mph87%30.01 "Hg10 mi
Weather by CustomWeather, © 2014

See weather overviewHow to use our weather pages